Prestonsburg, KY

11:22 PM EST on November 21, 2017 (GMT -0500)
Prestonsburg

Weather History for KK22 - September, 2012

Change the Weather History Date:

Monday, September 3, 2012

  Actual Average (KJKL) Record (KJKL)
Temperature  
Mean Temperature 76 °F -  
Max Temperature 82 °F 80 °F 96 °F (2011)
Min Temperature 70 °F 61 °F 52 °F (1994)
Cooling Degree Days 11    
Growing Degree Days 26 (Base 50)    
Moisture  
Dew Point 69 °F    
Average Humidity 82    
Maximum Humidity 95    
Minimum Humidity 64    
Precipitation  
Precipitation 0.00 in - - ()
Sea Level Pressure  
Sea Level Pressure 29.98 in    
Wind  
Wind Speed 6 mph ()    
Max Wind Speed 12 mph    
Max Gust Speed 20 mph    
Visibility 10.0 miles    
Events Rain    
Averages and records for this station are not official NWS values.
T = Trace of Precipitation, MM = Missing Value Source: Averaged Metar Reports

Daily Weather History Graph

Daily Weather History Graph

Search for Another Location

Airport or City:

Trip Planner

Search our weather history database for the weather conditions in past years. The results will help you decide how hot, cold, wet, or windy it might be!

Date:

Astronomy

Sep. 03, 2012 Rise Set
Actual Time 7:02 AM EDT 7:56 PM EDT
Civil Twilight 6:35 AM EDT 8:22 PM EDT
Nautical Twilight 6:04 AM EDT 8:54 PM EDT
Astronomical Twilight 5:31 AM EDT 9:26 PM EDT
Moon 9:19 PM EDT (9/3) 10:05 AM EDT (9/3)
Length of Visible Light 13h 46m
Length of Day
12h 53m
Waning Gibbous, 90% of the Moon is Illuminated
Sep 3
Waning Gibbous
Sep 8
Last Quarter
Sep 15
New
Sep 22
First Quarter
Sep 29
Full

Hourly Weather History & Observations

Time (EDT) Temp. Heat Index Dew Point Humidity Pressure Visibility Wind Dir Wind Speed Gust Speed Precip Events Conditions
12:15 AM 71.6 °F - 68.4 °F 89% 29.98 in 7.0 mi SE 6.9 mph - N/A Rain Light Rain
12:35 AM 72.0 °F - 68.4 °F 88% 29.98 in 10.0 mi SE 5.8 mph - N/A   Mostly Cloudy
12:55 AM 73.4 °F - 68.0 °F 83% 29.98 in 10.0 mi South 5.8 mph - N/A   Mostly Cloudy
1:15 AM 73.8 °F - 68.0 °F 82% 29.98 in 10.0 mi South 8.1 mph - N/A   Overcast
1:35 AM 73.6 °F - 68.0 °F 83% 29.98 in 10.0 mi South 11.5 mph - N/A   Light Drizzle
1:55 AM 73.0 °F - 68.2 °F 85% 29.98 in 10.0 mi South 9.2 mph 19.6 mph N/A   Light Drizzle
2:15 AM 72.5 °F - 68.5 °F 87% 29.97 in 10.0 mi South 9.2 mph - N/A   Light Drizzle
2:35 AM 72.5 °F - 68.2 °F 86% 29.97 in 10.0 mi SSW 9.2 mph - N/A   Overcast
2:55 AM 72.9 °F - 68.4 °F 86% 29.97 in 10.0 mi South 8.1 mph - N/A   Scattered Clouds
3:15 AM 73.0 °F - 68.2 °F 85% 29.96 in 10.0 mi South 8.1 mph - N/A   Scattered Clouds
3:35 AM 72.9 °F - 68.4 °F 86% 29.96 in 10.0 mi South 6.9 mph - N/A   Mostly Cloudy
3:55 AM 72.7 °F - 68.2 °F 86% 29.97 in 10.0 mi South 5.8 mph - N/A   Mostly Cloudy
4:15 AM 72.5 °F - 68.2 °F 86% 29.97 in 10.0 mi SSE 4.6 mph - N/A   Scattered Clouds
4:35 AM 72.1 °F - 68.0 °F 87% 29.97 in 10.0 mi South 6.9 mph - N/A   Clear
4:55 AM 72.1 °F - 68.0 °F 87% 29.97 in 10.0 mi SSE 5.8 mph - N/A   Clear
5:15 AM 71.8 °F - 67.8 °F 87% 29.98 in 10.0 mi South 4.6 mph - N/A   Light Drizzle
5:35 AM 72.1 °F - 67.6 °F 86% 29.98 in 10.0 mi SSE 5.8 mph - N/A   Overcast
5:55 AM 72.1 °F - 67.6 °F 86% 29.98 in 10.0 mi SSE 5.8 mph - N/A   Overcast
6:15 AM 71.8 °F - 67.6 °F 87% 29.98 in 10.0 mi SSE 5.8 mph - N/A   Overcast
6:35 AM 71.8 °F - 67.5 °F 86% 29.98 in 10.0 mi SSE 5.8 mph - N/A   Overcast
6:55 AM 71.6 °F - 67.6 °F 87% 29.98 in 10.0 mi SSE 5.8 mph - N/A   Overcast
7:15 AM 71.1 °F - 68.0 °F 90% 29.99 in 10.0 mi SE 3.5 mph - N/A   Drizzle
7:35 AM 70.7 °F - 68.0 °F 91% 29.99 in 10.0 mi ESE 3.5 mph - N/A   Light Drizzle
7:55 AM 70.2 °F - 68.4 °F 94% 29.99 in 10.0 mi ESE 4.6 mph - N/A   Clear
8:15 AM 70.9 °F - 68.4 °F 92% 29.99 in 10.0 mi ESE 4.6 mph - N/A   Scattered Clouds
8:35 AM 71.2 °F - 68.4 °F 91% 29.99 in 10.0 mi Calm Calm - N/A   Mostly Cloudy
8:55 AM 72.0 °F - 68.0 °F 87% 29.99 in 10.0 mi ESE 4.6 mph - N/A   Overcast
9:15 AM 72.7 °F - 67.8 °F 85% 30.00 in 10.0 mi SE 3.5 mph - N/A   Overcast
9:35 AM 73.4 °F - 68.2 °F 84% 30.00 in 10.0 mi SE 6.9 mph - N/A   Overcast
9:55 AM 73.9 °F - 67.6 °F 81% 30.00 in 10.0 mi SSE 8.1 mph - N/A   Overcast
10:15 AM 73.9 °F - 67.6 °F 81% 30.00 in 10.0 mi SSE 9.2 mph - N/A   Overcast
10:35 AM 74.5 °F - 67.6 °F 79% 30.01 in 10.0 mi SSE 9.2 mph - N/A   Overcast
10:55 AM 76.1 °F - 68.4 °F 77% 30.01 in 10.0 mi South 8.1 mph - N/A   Overcast
11:15 AM 76.1 °F - 68.2 °F 76% 30.01 in 10.0 mi South 9.2 mph - N/A   Overcast
11:35 AM 77.9 °F - 69.1 °F 74% 30.01 in 10.0 mi SSE 6.9 mph - N/A   Overcast
11:55 AM 81.3 °F 84.8 °F 69.8 °F 68% 30.00 in 10.0 mi SSE 10.4 mph - N/A   Mostly Cloudy
12:15 PM 81.7 °F 85.4 °F 70.0 °F 68% 30.00 in 10.0 mi South 9.2 mph - N/A   Mostly Cloudy
12:35 PM 82.2 °F 85.8 °F 69.4 °F 65% 30.00 in 10.0 mi South 6.9 mph - N/A   Scattered Clouds
12:55 PM 82.2 °F 85.5 °F 68.7 °F 64% 29.99 in 10.0 mi South 8.1 mph 16.1 mph N/A   Scattered Clouds
1:15 PM 81.7 °F 84.9 °F 68.9 °F 65% 29.99 in 10.0 mi South 6.9 mph - N/A   Overcast
1:35 PM 81.9 °F 85.4 °F 69.4 °F 66% 29.99 in 10.0 mi South 9.2 mph - N/A   Overcast
1:55 PM 78.6 °F - 70.5 °F 76% 29.99 in 10.0 mi WSW 5.8 mph - N/A   Light Drizzle
2:15 PM 77.5 °F - 70.9 °F 80% 29.99 in 10.0 mi West 4.6 mph - N/A   Overcast
2:35 PM 77.2 °F - 70.9 °F 81% 29.98 in 10.0 mi Calm Calm - N/A   Overcast
2:55 PM 77.9 °F - 72.0 °F 82% 29.98 in 10.0 mi West 3.5 mph - N/A   Overcast
3:15 PM 77.9 °F - 72.0 °F 82% 29.98 in 10.0 mi South 3.5 mph - N/A   Overcast
3:35 PM 78.4 °F - 72.3 °F 81% 29.97 in 10.0 mi WSW 3.5 mph - N/A   Overcast
3:55 PM 80.1 °F 83.6 °F 71.1 °F 74% 29.96 in 10.0 mi SW 5.8 mph - N/A   Overcast
4:15 PM 79.7 °F - 70.0 °F 72% 29.96 in 10.0 mi WSW 6.9 mph - N/A   Overcast
4:35 PM 80.1 °F 83.2 °F 69.8 °F 71% 29.96 in 10.0 mi WSW 9.2 mph - N/A   Overcast
4:55 PM 78.8 °F - 68.9 °F 72% 29.96 in 10.0 mi SW 8.1 mph - N/A   Overcast
5:15 PM 79.9 °F - 68.5 °F 68% 29.96 in 10.0 mi SW 6.9 mph - N/A   Overcast
5:35 PM 79.5 °F - 68.7 °F 69% 29.97 in 10.0 mi SSW 8.1 mph - N/A   Overcast
5:55 PM 79.0 °F - 69.1 °F 72% 29.97 in 10.0 mi SSW 8.1 mph - N/A   Overcast
6:15 PM 79.0 °F - 69.4 °F 72% 29.97 in 10.0 mi SW 5.8 mph - N/A   Mostly Cloudy
6:35 PM 77.9 °F - 69.1 °F 74% 29.97 in 10.0 mi SSW 6.9 mph - N/A   Mostly Cloudy
6:55 PM 77.2 °F - 69.6 °F 77% 29.98 in 10.0 mi WSW 3.5 mph - N/A   Overcast
7:15 PM 76.6 °F - 69.6 °F 79% 29.97 in 10.0 mi West 3.5 mph - N/A   Overcast
7:35 PM 76.6 °F - 69.3 °F 78% 29.97 in 10.0 mi Calm Calm - N/A   Overcast
7:55 PM 75.9 °F - 69.4 °F 80% 29.97 in 10.0 mi Calm Calm - N/A   Overcast
8:15 PM 75.6 °F - 69.4 °F 81% 29.98 in 10.0 mi Calm Calm - N/A   Overcast
8:35 PM 75.2 °F - 69.3 °F 82% 29.98 in 10.0 mi SSE 3.5 mph - N/A   Mostly Cloudy
8:55 PM 74.3 °F - 69.8 °F 86% 29.98 in 10.0 mi Calm Calm - N/A   Scattered Clouds
9:15 PM 71.8 °F - 70.0 °F 94% 29.99 in 10.0 mi Calm Calm - N/A   Clear
9:35 PM 73.9 °F - 69.8 °F 87% 30.00 in 10.0 mi SE 3.5 mph - N/A   Mostly Cloudy
9:55 PM 72.7 °F - 69.8 °F 91% 30.00 in 10.0 mi Calm Calm - N/A   Overcast
10:15 PM 74.1 °F - 69.6 °F 86% 30.00 in 10.0 mi Calm Calm - N/A   Overcast
10:35 PM 73.6 °F - 69.6 °F 87% 30.00 in 10.0 mi Calm Calm - N/A   Overcast
10:55 PM 71.8 °F - 70.0 °F 94% 30.01 in 10.0 mi Calm Calm - N/A   Overcast
11:15 PM 73.0 °F - 69.8 °F 90% 30.01 in 10.0 mi SE 3.5 mph - N/A   Overcast
11:35 PM 72.7 °F - 70.0 °F 91% 30.00 in 10.0 mi Calm Calm - N/A   Overcast
11:55 PM 71.4 °F - 69.8 °F 95% 30.00 in 10.0 mi Calm Calm - N/A   Mostly Cloudy